Location: Bannatyne
(13.0833°N, 59.5333°W)
Time: 02:00:41
(UTC+00:00)

ASTEX 1 - Pass Details

Date: 18 October 2019
Orbit: 722 x 742 km, 92.7° (Epoch: 17 November)

Event Time Altitude Azimuth Distance (km) Brightness Sun altitude
Rises 22:12:22 0° 1° (N) 3,156 6.6 -9.2°
Reaches altitude 10° 22:14:40 10° 358° (N) 2,236 5.9 -9.8°
Maximum altitude 22:19:34 64° 277° (W) 818 4.0 -10.9°
Drops below altitude 10° 22:24:28 10° 196° (SSW) 2,244 6.2 -12.1°
Sets 22:26:47 0° 193° (SSW) 3,167 7.0 -12.7°
